Regional Weather Roundup
Issued by NWS

Home | Current Version | Previous Version | Text Only | Print | Product List | Glossary On
Versions: 1 2 3 4 5 6 7 8 9 10 11 12 13 14 15 16 17 18 19 20 21 22 23 24 25 26 27 28 29 30 31 32 33 34 35 36 37 38 39 40 41 42 43 44 45 46 47 48 49 50
000
ASUS44 KFWD 191510
RWRTX
NORTH TEXAS HOURLY WEATHER ROUNDUP
NATIONAL WEATHER SERVICE FORT WORTH TX
900 AM CST THU JAN 19 2017

NOTE: "FAIR" INDICATES FEW OR NO CLOUDS BELOW 12,000 FEET WITH NO
SIGNIFICANT WEATHER AND/OR OBSTRUCTIONS TO VISIBILITY.

TXZ118-119-191600-
DALLAS/FORT WORTH METROPLEX

CITY           SKY/WX    TMP DP  RH WIND       PRES   REMARKS
DFW AIRPORT    FOG       49  49 100 S8        29.82S VSB 3/4
DALLAS LOVE    CLOUDY    50  48  93 SW8       29.84R FOG
FTW MEACHAM    CLOUDY    50  47  89 S10       29.82S FOG
DAL-EXECUTIVE  CLOUDY    49  49 100 S7        29.83S FOG
FTW-ALLIANCE   CLOUDY    49  47  93 S9        29.81S
FTW-NAS-JRB    CLOUDY    50  48  93 S12       29.83
FTW-SPINKS     CLOUDY    48  48 100 S8        29.85S
ARLINGTON      CLOUDY    49  48  97 VRB7      29.83F
GRAND PRAIRIE  CLOUDY    48  48 100 S6        29.85S FOG
ADDISON        CLOUDY    50  50 100 S6        29.85R FOG
MESQUITE       CLOUDY    50  50 100 S6        29.86R FOG
LANCASTER      CLOUDY    49  49  97 S8        29.86S FOG
$$

TXZ091>094-102>105-117-120-121-131>134-191600-
NORTH CENTRAL TEXAS

CITY           SKY/WX    TMP DP  RH WIND       PRES   REMARKS
SHRMAN/DENISON CLOUDY   N/A N/A N/A S10       29.83R FOG
GAINESVILLE    FOG       46  45  98 S9        29.82S VSB 1/2
BOWIE          CLOUDY    48  48 100 SE9       29.78S FOG
BRIDGEPORT     CLOUDY    48  48 100 S6        29.82S
DECATUR        CLOUDY    63  63 100 S9        29.81R FOG
DENTON         FOG       47  47 100 S10       29.82S VSB 1/2
MCKINNEY       CLOUDY    50  50 100 S13       29.83S
BONHAM         CLOUDY    50  48  93 S7        29.84R FOG
GREENVILLE     CLOUDY    50  50 100 S3        29.85R FOG
ROCKWALL       CLOUDY    51  51 100 S6        29.85R FOG
TERRELL        CLOUDY    51  50  96 S7        29.86R FOG
WAXAHACHIE     CLOUDY    48  48 100 S9        29.86S FOG
CLEBURNE         N/A     48  48 100 S9        29.85S
GRANBURY       CLOUDY    50  47  90 S9        29.85R
$$

TXZ083>090-098>101-113>116-127>130-139>142-154-155-191600-
WESTERN NORTH TEXAS

CITY           SKY/WX    TMP DP  RH WIND       PRES   REMARKS
WICHITA FALLS  SUNNY     45  43  93 S9        29.73F
WF-KICKAPOO    SUNNY     44  43  97 S6        29.75F
VERNON         SUNNY     45  41  86 SW12      29.71F WCI  39
ABILENE        SUNNY     45  43  93 S16       29.79R WCI  38
ABILENE-DYESS  SUNNY     47  35  62 S17       29.77R
GRAHAM         SUNNY     46  46 100 S5        29.76S
BRECKENRIDGE   SUNNY     50  45  84 SW15G22   29.78S
CISCO          SUNNY     45  43  93 S9        29.80S WCI  40
RANGER         MOSUNNY   45  45 100 S12       29.82R WCI  39
MINERAL WELLS  FOG       47  46  97 S14       29.80R VSB 1
STEPHENVILLE   CLOUDY    46  45  94 S3        29.86R VSB 1/2
COMANCHE       CLOUDY    45  45 100 SW6       29.85S
BROWNWOOD      CLOUDY    45  45 100 S9        29.85S FOG     WCI  40
COLEMAN        PTSUNNY   43  43 100 SW5       29.84S
$$

TXZ143>147-156>162-174-175-191600-
CENTRAL TEXAS

CITY           SKY/WX    TMP DP  RH WIND       PRES   REMARKS
WACO           CLOUDY    51  50  96 S8        29.87R
WACO-MCGREGOR  CLOUDY    51  49  92 SW10      29.87R
HILLSBORO      CLOUDY    51  50  98 S9        29.85S
CORSICANA      CLOUDY    52  51  97 S6        29.87S FOG
MEXIA          CLOUDY    50  50  97 CALM      29.86R
HEARNE         CLOUDY    51  51 100 S3        29.90R FOG
CAMERON        CLOUDY    52  51  97 CALM      29.90R FOG
TEMPLE         CLOUDY    51  50  96 SW10      29.88R
KILLEEN        CLOUDY    50  50 100 CALM      29.86R
KILLEEN-SKYLRK CLOUDY    51  50  96 W10       29.88R
FORT HOOD      CLOUDY    52  48  87 SW9       29.89R
GATESVILLE     CLOUDY    50  48  93 SW10      29.89R
HAMILTON       CLOUDY    47  47 100 SW13      29.87R FOG
LAMPASAS       CLOUDY    50  49  97 W5        29.87S
$$

TXZ095>097-106>112-122>126-135>138-148>153-164>167-191600-
EAST TEXAS

CITY           SKY/WX    TMP DP  RH WIND       PRES   REMARKS
PARIS          CLOUDY    50  48  93 SE7       29.83S VSB 3/4
SULPHUR SPRNGS CLOUDY    51  51 100 S6        29.86S FOG
MOUNT PLEASANT CLOUDY    51  51 100 SE3       29.86S VSB 1/4
GILMER         FOG       51  51 100 CALM      29.86R VSB 1/2
MINEOLA        CLOUDY    50  50 100 S3        29.84F
TYLER          FOG       52  52 100 S6        29.86R VSB 1/8
LONGVIEW       FOG       53  53 100 S5        29.86R VSB 1/2
MARSHALL       CLOUDY    53  51  94 CALM      29.90R VSB 3/4
ATHENS         CLOUDY    50  50 100 S3        29.85R FOG
PALESTINE      FOG       51  51 100 CALM      29.88S VSB 3/4
JACKSONVILLE   FOG       51  51 100 CALM      29.89F VSB 3/4
HENDERSON      FOG      N/A N/A N/A CALM      29.88S VSB 1/2
CENTER         LGT RAIN  58  57  96 CALM      29.88R VSB 3/4
NACOGDOCHES    CLOUDY    54  52  94 W8        29.90R VSB 1
LUFKIN         LGT RAIN  53  53 100 S7        29.90R
$$

SUPPLEMENTAL OBSERVATIONS (CENTRAL)

CITY           SKY/WX    TMP DP  RH WIND       PRES   REMARKS
CADDO GRASSLND   N/A     52  50  93 S3          N/A
MCGREGOR         N/A     52  50  93 SW7         N/A
TEMPLE           N/A     52  50  93 W5          N/A
$$

SUPPLEMENTAL OBSERVATIONS (WEST)

CITY           SKY/WX    TMP DP  RH WIND       PRES   REMARKS
MILLERS CREEK    N/A     46  45  93 SW10        N/A
POSSUM KINGDOM   N/A     48  46  93 S6          N/A
LBJ GRASSLAND    N/A     48  46  93 SE8         N/A
GRANBURY         N/A     48  46  93 S12         N/A
HAMBY            N/A     48  43  81 SW15        N/A
$$

SUPPLEMENTAL OBSERVATIONS (EAST)

CITY           SKY/WX    TMP DP  RH WIND       PRES   REMARKS
TEXARKANA        N/A     50  48  93 CALM        N/A
LINDEN           N/A     52  50  93 CALM        N/A
LUFKIN           N/A     54  52  94 MISG        N/A
N SABINE NF      N/A     57  55  94 MISG        N/A
$$

SUPPLEMENTAL OBSERVATIONS ARE A COLLECTION OF AUTOMATED INSTRUMENTS
THAT ARE MAINTAINED BY A VARIETY OF FEDERAL AND STATE AGENCIES.
CERTAIN ELEMENTS...SUCH AS HUMIDITY VALUES AND SUSTAINED WIND
SPEEDS...MAY BE APPROXIMATED.





USA.gov is the U.S. government's official web portal to all federal, state and local government web resources and services.